Terug naar catalogus

STARLINK-5316

ActiefCommunicatieVLEO
NORAD 55305·PAYLOAD·🇺🇸 United States

Gelanceerd Jan 19, 2023 vanaf Vandenberg Space Force Base

Loading…

Volgende Passages (komende 24 uur)

TLE

VersSource: CelesTrak SupGP

Epoch: Sep 15, 2026, 02:31 UTC

1 55305C 23010AN  26258.10534722 -.00029315  00000+0 -24562-2 0  2581
2 55305  69.9999 267.0561 0003679 267.9559 219.3321 14.98351628    15

Volg STARLINK-5316 in realtime met AllMySat

Download on the App Store